Time,TemperatureF,DewpointF,PressureIn,WindDirection,WindDirectionDegrees,WindSpeedMPH,WindSpeedGustMPH,Humidity,HourlyPrecipIn,Conditions,Clouds,dailyrainin,SolarRadiationWatts/m^2,SoftwareType,DateUTC
2013-03-17 00:22:00,38.0,18.0,-100.00,NNW,343,3.0,7.0,44,0.00,,,0.00,0.000000,,2013-03-17 06:22:00,
2013-03-17 00:32:00,38.0,18.0,-100.00,NNW,343,3.0,7.0,44,0.00,,,0.00,0.000000,,2013-03-17 06:32:00,
2013-03-17 00:42:00,38.0,18.0,-100.00,NNW,343,3.0,7.0,44,0.00,,,0.00,0.000000,,2013-03-17 06:42:00,
2013-03-17 00:52:00,38.0,18.0,-100.00,NNW,343,3.0,7.0,44,0.00,,,0.00,0.000000,,2013-03-17 06:52:00,
2013-03-17 01:22:00,37.0,19.0,-100.00,NW,318,0.0,6.0,47,0.00,,,0.00,0.000000,,2013-03-17 07:22:00,
2013-03-17 01:32:00,37.0,19.0,-100.00,NW,318,0.0,6.0,47,0.00,,,0.00,0.000000,,2013-03-17 07:32:00,
2013-03-17 01:42:00,37.0,19.0,-100.00,NW,318,0.0,6.0,47,0.00,,,0.00,0.000000,,2013-03-17 07:42:00,
2013-03-17 01:52:00,37.0,19.0,-100.00,NW,318,0.0,6.0,47,0.00,,,0.00,0.000000,,2013-03-17 07:52:00,
2013-03-17 02:22:00,37.0,18.0,-100.00,NE,42,2.0,4.0,46,0.00,,,0.00,0.000000,,2013-03-17 08:22:00,
2013-03-17 02:32:00,37.0,18.0,-100.00,NE,42,2.0,4.0,46,0.00,,,0.00,0.000000,,2013-03-17 08:32:00,
2013-03-17 02:42:00,37.0,18.0,-100.00,NE,42,2.0,4.0,46,0.00,,,0.00,0.000000,,2013-03-17 08:42:00,
2013-03-17 02:52:00,37.0,18.0,-100.00,NE,42,2.0,4.0,46,0.00,,,0.00,0.000000,,2013-03-17 08:52:00,
2013-03-17 03:22:00,36.0,17.0,-100.00,WNW,303,4.0,7.0,46,0.00,,,0.00,0.000000,,2013-03-17 09:22:00,
2013-03-17 03:32:00,36.0,17.0,-100.00,WNW,303,4.0,7.0,46,0.00,,,0.00,0.000000,,2013-03-17 09:32:00,
2013-03-17 03:42:00,36.0,17.0,-100.00,WNW,303,4.0,7.0,46,0.00,,,0.00,0.000000,,2013-03-17 09:42:00,
2013-03-17 03:52:00,36.0,17.0,-100.00,WNW,303,4.0,7.0,46,0.00,,,0.00,0.000000,,2013-03-17 09:52:00,
2013-03-17 04:23:00,34.0,17.0,-100.00,ESE,119,2.0,7.0,50,0.00,,,0.00,0.000000,,2013-03-17 10:23:00,
2013-03-17 04:33:00,34.0,17.0,-100.00,ESE,119,2.0,7.0,50,0.00,,,0.00,0.000000,,2013-03-17 10:33:00,
2013-03-17 04:42:00,34.0,17.0,-100.00,ESE,119,2.0,7.0,50,0.00,,,0.00,0.000000,,2013-03-17 10:42:00,
2013-03-17 04:52:00,34.0,17.0,-100.00,ESE,119,2.0,7.0,50,0.00,,,0.00,0.000000,,2013-03-17 10:52:00,
2013-03-17 05:22:00,36.0,18.0,-100.00,NE,49,2.0,5.0,47,0.00,,,0.00,0.000000,,2013-03-17 11:22:00,
2013-03-17 05:32:00,36.0,18.0,-100.00,NE,49,2.0,5.0,47,0.00,,,0.00,0.000000,,2013-03-17 11:32:00,
2013-03-17 06:22:00,34.0,18.0,-100.00,East,79,4.0,5.0,52,0.00,,,0.00,0.000000,,2013-03-17 12:22:00,
2013-03-17 06:32:00,34.0,18.0,-100.00,East,79,4.0,5.0,52,0.00,,,0.00,0.000000,,2013-03-17 12:32:00,
2013-03-17 06:42:00,34.0,18.0,-100.00,East,79,4.0,5.0,52,0.00,,,0.00,0.000000,,2013-03-17 12:42:00,
2013-03-17 06:51:00,34.0,18.0,-100.00,East,79,4.0,5.0,52,0.00,,,0.00,0.000000,,2013-03-17 12:51:00,
2013-03-17 07:22:00,33.0,19.0,-100.00,NNE,17,4.0,7.0,56,0.00,,,0.00,0.000000,,2013-03-17 13:22:00,
2013-03-17 07:32:00,33.0,19.0,-100.00,NNE,17,4.0,7.0,56,0.00,,,0.00,0.000000,,2013-03-17 13:32:00,
2013-03-17 07:42:00,33.0,19.0,-100.00,NNE,17,4.0,7.0,56,0.00,,,0.00,0.000000,,2013-03-17 13:42:00,
2013-03-17 07:52:00,33.0,19.0,-100.00,NNE,17,4.0,7.0,56,0.00,,,0.00,0.000000,,2013-03-17 13:52:00,
2013-03-17 08:22:00,34.0,19.0,-100.00,ESE,115,3.0,7.0,53,0.00,,,0.00,6.000000,,2013-03-17 14:22:00,
2013-03-17 08:32:00,34.0,19.0,-100.00,ESE,115,3.0,7.0,53,0.00,,,0.00,6.000000,,2013-03-17 14:32:00,
2013-03-17 08:42:00,34.0,19.0,-100.00,ESE,115,3.0,7.0,53,0.00,,,0.00,6.000000,,2013-03-17 14:42:00,
2013-03-17 08:52:00,34.0,19.0,-100.00,ESE,115,3.0,7.0,53,0.00,,,0.00,6.000000,,2013-03-17 14:52:00,
2013-03-17 09:23:00,35.0,23.0,-100.00,East,84,3.0,6.0,60,0.00,,,0.00,60.000000,,2013-03-17 15:23:00,
2013-03-17 09:33:00,35.0,23.0,-100.00,East,84,3.0,6.0,60,0.00,,,0.00,60.000000,,2013-03-17 15:33:00,
2013-03-17 09:42:00,35.0,23.0,-100.00,East,84,3.0,6.0,60,0.00,,,0.00,60.000000,,2013-03-17 15:42:00,
2013-03-17 09:52:00,35.0,23.0,-100.00,East,84,3.0,6.0,60,0.00,,,0.00,60.000000,,2013-03-17 15:52:00,
2013-03-17 10:22:00,38.0,28.0,-100.00,NE,43,4.0,7.0,66,0.00,,,0.00,217.000000,,2013-03-17 16:22:00,
2013-03-17 10:33:00,38.0,28.0,-100.00,NE,43,4.0,7.0,66,0.00,,,0.00,217.000000,,2013-03-17 16:33:00,
2013-03-17 10:42:00,38.0,28.0,-100.00,NE,43,4.0,7.0,66,0.00,,,0.00,217.000000,,2013-03-17 16:42:00,
2013-03-17 10:52:00,38.0,28.0,-100.00,NE,43,4.0,7.0,66,0.00,,,0.00,217.000000,,2013-03-17 16:52:00,
2013-03-17 11:22:00,43.0,28.0,-100.00,SE,145,7.0,16.0,55,0.00,,,0.00,525.000000,,2013-03-17 17:22:00,
2013-03-17 11:33:00,43.0,28.0,-100.00,SE,145,7.0,16.0,55,0.00,,,0.00,525.000000,,2013-03-17 17:33:00,
2013-03-17 11:42:00,43.0,28.0,-100.00,SE,145,7.0,16.0,55,0.00,,,0.00,525.000000,,2013-03-17 17:42:00,
2013-03-17 11:52:00,43.0,28.0,-100.00,SE,145,7.0,16.0,55,0.00,,,0.00,525.000000,,2013-03-17 17:52:00,
2013-03-17 12:22:00,45.0,15.0,-100.00,WNW,292,8.0,21.0,29,0.00,,,0.00,450.000000,,2013-03-17 18:22:00,
2013-03-17 12:32:00,45.0,15.0,-100.00,WNW,292,8.0,21.0,29,0.00,,,0.00,450.000000,,2013-03-17 18:32:00,
2013-03-17 13:22:00,49.0,13.0,-100.00,West,281,11.0,22.0,23,0.00,,,0.00,776.000000,,2013-03-17 19:22:00,
2013-03-17 13:32:00,49.0,13.0,-100.00,West,281,11.0,22.0,23,0.00,,,0.00,776.000000,,2013-03-17 19:32:00,
2013-03-17 13:41:00,49.0,13.0,-100.00,West,281,11.0,22.0,23,0.00,,,0.00,776.000000,,2013-03-17 19:41:00,
2013-03-17 13:53:00,49.0,13.0,-100.00,West,281,11.0,22.0,23,0.00,,,0.00,776.000000,,2013-03-17 19:53:00,
2013-03-17 14:22:00,42.0,26.0,-100.00,NNW,337,9.0,24.0,53,0.00,,,0.00,464.000000,,2013-03-17 20:22:00,
2013-03-17 14:32:00,42.0,26.0,-100.00,NNW,337,9.0,24.0,53,0.00,,,0.00,464.000000,,2013-03-17 20:32:00,
2013-03-17 15:22:00,47.0,23.0,-100.00,NW,310,8.0,19.0,39,0.02,,,0.02,646.000000,,2013-03-17 21:22:00,
2013-03-17 15:33:00,47.0,23.0,-100.00,NW,310,8.0,19.0,39,0.02,,,0.02,646.000000,,2013-03-17 21:33:00,
2013-03-17 15:42:00,47.0,23.0,-100.00,NW,310,8.0,19.0,39,0.02,,,0.02,646.000000,,2013-03-17 21:42:00,
2013-03-17 15:52:00,47.0,23.0,-100.00,NW,310,8.0,19.0,39,0.02,,,0.02,646.000000,,2013-03-17 21:52:00,
2013-03-17 16:23:00,34.0,27.0,-100.00,NNW,337,12.0,32.0,75,0.01,,,0.03,253.000000,,2013-03-17 22:23:00,
2013-03-17 16:33:00,34.0,27.0,-100.00,NNW,337,12.0,32.0,75,0.01,,,0.03,253.000000,,2013-03-17 22:33:00,
2013-03-17 17:22:00,41.0,21.0,-100.00,NW,309,7.0,25.0,45,-99.99,,,0.03,373.000000,,2013-03-17 23:22:00,
2013-03-17 17:32:00,41.0,21.0,-100.00,NW,309,7.0,25.0,45,-99.99,,,0.03,373.000000,,2013-03-17 23:32:00,
2013-03-17 17:42:00,41.0,21.0,-100.00,NW,309,7.0,25.0,45,-99.99,,,0.03,373.000000,,2013-03-17 23:42:00,
2013-03-17 17:52:00,41.0,21.0,-100.00,NW,309,7.0,25.0,45,-99.99,,,0.03,373.000000,,2013-03-17 23:52:00,
2013-03-17 18:22:00,43.0,10.0,-100.00,WNW,286,8.0,27.0,25,0.00,,,0.03,189.000000,,2013-03-18 00:22:00,
2013-03-17 18:32:00,43.0,10.0,-100.00,WNW,286,8.0,27.0,25,0.00,,,0.03,189.000000,,2013-03-18 00:32:00,
2013-03-17 18:42:00,43.0,10.0,-100.00,WNW,286,8.0,27.0,25,0.00,,,0.03,189.000000,,2013-03-18 00:42:00,
2013-03-17 18:52:00,43.0,10.0,-100.00,WNW,286,8.0,27.0,25,0.00,,,0.03,189.000000,,2013-03-18 00:52:00,
2013-03-17 19:22:00,41.0,11.0,-100.00,NW,309,8.0,22.0,29,0.00,,,0.03,61.000000,,2013-03-18 01:22:00,
2013-03-17 19:32:00,41.0,11.0,-100.00,NW,309,8.0,22.0,29,0.00,,,0.03,61.000000,,2013-03-18 01:32:00,
2013-03-17 19:42:00,41.0,11.0,-100.00,NW,309,8.0,22.0,29,0.00,,,0.03,61.000000,,2013-03-18 01:42:00,
2013-03-17 19:52:00,41.0,11.0,-100.00,NW,309,8.0,22.0,29,0.00,,,0.03,61.000000,,2013-03-18 01:52:00,
2013-03-17 20:22:00,40.0,8.0,-100.00,NW,321,13.0,27.0,26,0.00,,,0.03,5.000000,,2013-03-18 02:22:00,
2013-03-17 20:32:00,40.0,8.0,-100.00,NW,321,13.0,27.0,26,0.00,,,0.03,5.000000,,2013-03-18 02:32:00,
2013-03-17 20:42:00,40.0,8.0,-100.00,NW,321,13.0,27.0,26,0.00,,,0.03,5.000000,,2013-03-18 02:42:00,
2013-03-17 20:52:00,40.0,8.0,-100.00,NW,321,13.0,27.0,26,0.00,,,0.03,5.000000,,2013-03-18 02:52:00,
2013-03-17 21:22:00,39.0,7.0,-100.00,NW,323,14.0,24.0,26,0.00,,,-99.99,0.000000,,2013-03-18 03:22:00,
2013-03-17 21:33:00,39.0,7.0,-100.00,NW,323,14.0,24.0,26,0.00,,,-99.99,0.000000,,2013-03-18 03:33:00,
2013-03-17 21:42:00,39.0,7.0,-100.00,NW,323,14.0,24.0,26,0.00,,,-99.99,0.000000,,2013-03-18 03:42:00,
2013-03-17 21:52:00,39.0,7.0,-100.00,NW,323,14.0,24.0,26,0.00,,,-99.99,0.000000,,2013-03-18 03:52:00,
2013-03-17 22:22:00,38.0,5.0,-100.00,NNW,333,13.0,30.0,25,0.00,,,0.03,0.000000,,2013-03-18 04:22:00,
2013-03-17 22:33:00,38.0,5.0,-100.00,NNW,333,13.0,30.0,25,0.00,,,0.03,0.000000,,2013-03-18 04:33:00,
2013-03-17 22:42:00,38.0,5.0,-100.00,NNW,333,13.0,30.0,25,0.00,,,0.03,0.000000,,2013-03-18 04:42:00,
2013-03-17 22:52:00,38.0,5.0,-100.00,NNW,333,13.0,30.0,25,0.00,,,0.03,0.000000,,2013-03-18 04:52:00,
2013-03-17 23:22:00,37.0,4.0,-100.00,NNW,328,11.0,31.0,25,0.00,,,0.03,0.000000,,2013-03-18 05:22:00,
2013-03-17 23:32:00,37.0,4.0,-100.00,NNW,328,11.0,31.0,25,0.00,,,0.03,0.000000,,2013-03-18 05:32:00,
2013-03-17 23:42:00,37.0,4.0,-100.00,NNW,328,11.0,31.0,25,0.00,,,0.03,0.000000,,2013-03-18 05:42:00,
2013-03-17 23:52:00,37.0,4.0,-100.00,NNW,328,11.0,31.0,25,0.00,,,0.03,0.000000,,2013-03-18 05:52:00,